Regional Weather Roundup
Issued by NWS Kansas City/Pleasant Hill, MO

Home | Current Version | Previous Version | Text Only | Print | Product List | Glossary On
Versions: 1 2 3 4 5 6 7 8 9 10 11 12 13 14 15 16 17 18 19 20 21 22 23 24 25 26 27 28 29 30 31 32 33 34 35 36 37 38 39 40 41 42 43 44 45 46 47 48 49 50
580
ASUS43 KEAX 180410
RWREAX

WEATHER ROUNDUP FOR EASTERN KANSAS AND NORTHWEST MISSOURI
NATIONAL WEATHER SERVICE KANSAS CITY/PLEASANT HILL MO
1100 PM CDT TUE OCT 17 2017

KSZ040-057-103>105-MOZ028-029-037-043-180500-
...KANSAS CITY METROPOLITAN AREA...

CITY           SKY/WX    TMP DP  RH WIND       PRES   REMARKS
K.C. INTL      CLEAR     56  47  71 S12       30.09F
K.C. DOWNTOWN  CLEAR     61  47  59 S9        30.10S
LEES SUMMIT    CLEAR     58  47  66 S10       30.12S
OLATHE - IXD   CLEAR     54  47  77 S8        30.11S
OLATHE - OJC   CLEAR     56  46  69 S9        30.11S
LAWRENCE       CLEAR     58  48  69 S8        30.09S

$$

MOZ001>008-011>017-020>025-030>033-038>040-044>046-053-054-180500-
...NORTHERN AND CENTRAL MISSOURI...

CITY           SKY/WX    TMP DP  RH WIND       PRES   REMARKS
ST. JOSEPH     CLEAR     60  49  66 S9        30.08R
MOSBY          CLEAR     54  45  71 S3        30.11S
WARRENSBURG    CLEAR     54  45  71 S6        30.12S
WHITEMAN AFB   CLEAR     52  45  77 S9        30.09S
CLINTON        CLEAR     55  45  67 S8        30.14F HAZE
SEDALIA        CLEAR     54  46  74 S10       30.15R
WARSAW         NOT AVBL
CHILLICOTHE      N/A     53  47  79 S3        30.12S
KIRKSVILLE     CLEAR     51  46  83 S7        30.13F

$$

MOZ041-047>049-056>058-063>065-088>090-097-180500-
...EASTERN AND SOUTHERN MISSOURI...

CITY           SKY/WX    TMP DP  RH WIND       PRES   REMARKS
ST. LOUIS INTL CLEAR     57  41  55 S8        30.21R
SPIRIT OF STL  CLEAR     46  44  93 CALM      30.19S
COLUMBIA       CLEAR     52  43  71 S8        30.16R
JEFFERSON CITY CLEAR     53  42  66 SE5       30.16S
ROLLA          CLEAR     51  39  63 S10       30.19S
OSAGE BEACH    CLEAR     52  42  69 S5        30.18
SPRINGFIELD    CLEAR     54  41  61 S9        30.17S
BRANSON        CLEAR     54  37  54 S6        30.21R
JOPLIN         CLEAR     52  45  77 S8        30.16S
WEST PLAINS    CLEAR     52  40  63 S6        30.23S

$$

IAZ060-094-KSZ022-034>040-054-083-096-NEZ052-066-093-180500-
...KANSAS...SOUTHEAST NEBRASKA AND IOWA...

CITY           SKY/WX    TMP DP  RH WIND       PRES   REMARKS
TOPEKA         CLEAR     59  48  67 S8        30.07F
MANHATTAN      CLEAR     59  47  64 S9        30.04F
EMPORIA        CLEAR     54  45  71 S12       30.09F
CHANUTE        CLEAR     53  46  77 S7        30.14R
WICHITA        CLEAR     55  47  74 S13       30.08S
OMAHA          CLEAR     55  46  71 SE7       30.00S
LINCOLN        PTCLDY    55  46  71 S3        30.00F
FALLS CITY     CLEAR     57  47  69 S9        30.03F
LAMONI         CLEAR     55  46  71 S8        30.07S
DES MOINES     CLEAR     56  46  69 S8        30.04F

$$





USA.gov is the U.S. government's official web portal to all federal, state and local government web resources and services.